Weather Roundup
Issued by NWS Chicago, IL

Home | Current Version | Previous Version | Graphics & Text | Print | Product List | Glossary On
Versions: 1 2 3 4 5 6 7 8 9 10 11 12 13 14 15 16 17 18 19 20 21 22 23 24 25 26 27 28 29 30 31 32 33 34 35 36 37 38 39 40 41 42 43 44 45 46 47 48 49 50
000
NZUS59 KLOT 301800
HRRLOT

CHICAGO AREA WEATHER ROUNDUP
NATIONAL WEATHER SERVICE CHICAGO/ROMEOVILLE IL
1200 PM CST FRI JAN 30 2015

NOTE: "FAIR" INDICATES FEW OR NO CLOUDS BELOW 12,000 FEET WITH NO
SIGNIFICANT WEATHER AND/OR OBSTRUCTIONS TO VISIBILITY.

* THESE STATIONS ARE NOT UNDER NWS QUALITY CONTROL. THEY ALSO MAY NOT
  REPORT WEATHER SUCH AS PRECIPITATION OR FOG.

ILZ005-006-012>014-019>023-301900-
NORTHEAST ILLINOIS

CITY           SKY/WX    TMP DP  RH WIND       PRES   REMARKS
OHARE          MOSUNNY   25   8  48 VRB6      30.51F WCI  18
6HR MIN TEMP:  19; 6HR MAX TEMP:  27;

MIDWAY         MOSUNNY   31   9  39 N3        30.51F
6HR MIN TEMP:  23; 6HR MAX TEMP:  31;

AURORA         SUNNY     27  10  49 NW5       30.51F WCI  22
6HR MIN TEMP:  19; 6HR MAX TEMP:  27;

WAUKEGAN       SUNNY     25   7  46 W5        30.50F WCI  19
6HR MIN TEMP:  17; 6HR MAX TEMP:  26;

DUPAGE AIRPORT SUNNY     27   8  44 CALM      30.50F
6HR MIN TEMP:  17; 6HR MAX TEMP:  28; 6HR PCP: TRACE;

WHEELING       SUNNY     26   7  44 VRB5      30.52F WCI  20
6HR MIN TEMP:  19; 6HR MAX TEMP:  27;

NORTHERLY IS     N/A     26  16  65 MISG        N/A
$$

WIZ051-052-058>065-066-070>072-301900-
SOUTHEAST WISCONSIN

CITY           SKY/WX    TMP DP  RH WIND       PRES   REMARKS
MILWAUKEE      MOSUNNY   25   7  46 CALM      30.50F
6HR MIN TEMP:  18; 6HR MAX TEMP:  25;

KENOSHA*       SUNNY     25   8  48 W8        30.51F WCI  16
RACINE*        PTSUNNY   25   9  50 VRB6      30.52F WCI  18
WAUKESHA       SUNNY     19   7  58 CALM      30.55R
$$

INZ001>003-010>013-019-020-301900-
NORTHWEST INDIANA

CITY           SKY/WX    TMP DP  RH WIND       PRES   REMARKS
GARY*          MOSUNNY   30  14  51 N12       30.53F WCI  21
MICHIGAN CITY* NOT AVBL
RENSSELAER*    NOT AVBL
$$

LMZ740>746-301900-
SOUTHERN LAKE MICHIGAN

STATION/POSITION TIME  SKY/WX   TEMP WIND        PRES    VSBY
                                AIR  DIR/SP/G
                 (UTC)          (F)  (DEG/KT/KT) (MB)    (MI)
HARRISON CRIB    1700            23  350/ 11/ 14   N/A
BURNHAM HARBOR   1800            27   20/  9/ 12   N/A
CALUMET HARBOR   1700            25  330/ 11/ 13   N/A
BURNS HARBOR     NOT AVBL
MICHIGAN CITY    1700            25  350/ 14/ 17   N/A
$$

ABBREVIATIONS USED IN REMARKS
   TC - TEMPERATURE IN CELSIUS
  WCI - WIND CHILL INDEX
   HX - HEAT INDEX
  VSB - VISIBILITY
$$


USA.gov is the U.S. government's official web portal to all federal, state and local government web resources and services.